Powrót do katalogu

IRIDIUM 33 DEB

AktywnyPO
NORAD 34159·DEBRIS·🇺🇸 United States

Wystrzelony Sep 14, 1997 z Baikonur Cosmodrome

Loading…

Następne Przeloty (najbliższe 24 godziny)

TLE

ŚwieżeSource: Space-Track

Epoka: Sep 14, 2026, 13:08 UTC

1 34159U 97051EN  26257.54785895  .00000628  00000-0  19579-3 0  9997
2 34159  86.3470 290.6101 0030078 101.2556 259.2025 14.39078441919251

Śledź IRIDIUM 33 DEB w czasie rzeczywistym z AllMySat

Download on the App Store